When you browse on this site, cookies collect data to enhance your experience and personalize the content and advertising you see.
Visit our Privacy Policy to learn more. By continuing to use the site, you agree to this use of cookies and data.
  • In Romania
  • List of Countries
  • For 7 days
  • Water Temperature
  • Satellite Maps
  • Weather Map
  • Weather Widgets
  • user-avatar
    Login

    Hourly Weather Lyubohovo

    Today, 19 April, Friday

    Time Temperature Precipitation Wind Pressure Humidity
    00:00 +3°C° 0 mm 2 mps 759 mmHg 87%
    01:00 +2°C° 0 mm 2 mps 760 mmHg 88%
    02:00 +2°C° 0 mm 1 mps 760 mmHg 88%
    03:00 +2°C° 0 mm 1 mps 760 mmHg 88%
    04:00 +2°C° 0 mm 1 mps 760 mmHg 88%
    05:00 +1°C° 0 mm 1 mps 760 mmHg 89%
    06:00 +3°C° 0 mm 1 mps 760 mmHg 79%
    07:00 +5°C° 0 mm 1 mps 760 mmHg 70%
    08:00 +7°C° 0 mm 1 mps 760 mmHg 60%
    09:00 +8°C° 0 mm 1 mps 760 mmHg 54%
    10:00 +10°C° 0 mm 1 mps 760 mmHg 48%
    11:00 +11°C° 0 mm 1 mps 760 mmHg 41%
    12:00 +12°C° 0 mm 1 mps 760 mmHg 40%
    13:00 +12°C° 0 mm 1 mps 759 mmHg 38%
    14:00 +13°C° 0 mm 1 mps 759 mmHg 36%
    15:00 +13°C° 0 mm 1 mps 758 mmHg 37%
    16:00 +12°C° 0 mm 1 mps 758 mmHg 38%
    17:00 +12°C° 0 mm 1 mps 758 mmHg 39%
    18:00 +11°C° 0 mm 1 mps 757 mmHg 44%
    19:00 +9°C° 0 mm 1 mps 757 mmHg 49%
    20:00 +7°C° 0 mm 2 mps 757 mmHg 54%
    21:00 +6°C° 0 mm 2 mps 757 mmHg 56%
    22:00 +6°C° 0 mm 2 mps 756 mmHg 59%
    23:00 +6°C° 0 mm 2 mps 756 mmHg 61%

    Tomorrow, 20 April, Saturday

    Time Temperature Precipitation Wind Pressure Humidity
    00:00 +5°C° 0.1 mm 2 mps 756 mmHg 64%
    01:00 +5°C° 0.1 mm 2 mps 755 mmHg 67%
    02:00 +5°C° 0.1 mm 2 mps 755 mmHg 70%
    03:00 +5°C° 0.4 mm 2 mps 755 mmHg 76%
    04:00 +5°C° 0.4 mm 2 mps 755 mmHg 82%
    05:00 +5°C° 0.4 mm 2 mps 754 mmHg 87%
    06:00 +5°C° 0.2 mm 2 mps 754 mmHg 86%
    07:00 +6°C° 0.2 mm 2 mps 754 mmHg 84%
    08:00 +7°C° 0.2 mm 2 mps 754 mmHg 83%
    09:00 +8°C° 0.2 mm 2 mps 754 mmHg 76%
    10:00 +9°C° 0.2 mm 2 mps 754 mmHg 69%
    11:00 +10°C° 0.2 mm 2 mps 754 mmHg 63%
    12:00 +10°C° 0.2 mm 2 mps 754 mmHg 60%
    13:00 +10°C° 0.2 mm 2 mps 754 mmHg 57%
    14:00 +12°C° 0.2 mm 2 mps 754 mmHg 54%
    15:00 +10°C° 0.2 mm 2 mps 754 mmHg 56%
    16:00 +10°C° 0.2 mm 2 mps 754 mmHg 57%
    17:00 +10°C° 0.2 mm 2 mps 754 mmHg 59%
    18:00 +9°C° 0.1 mm 1 mps 755 mmHg 66%
    19:00 +8°C° 0.1 mm 1 mps 755 mmHg 74%
    20:00 +7°C° 0.1 mm 1 mps 755 mmHg 81%
    21:00 +6°C° 0 mm 1 mps 755 mmHg 85%
    22:00 +5°C° 0 mm 1 mps 756 mmHg 89%
    23:00 +4°C° 0 mm 2 mps 756 mmHg 93%

    Day after tomorrow, 21 April, Sunday

    Time Temperature Precipitation Wind Pressure Humidity
    00:00 +4°C° 0 mm 1 mps 756 mmHg 94%
    01:00 +4°C° 0 mm 1 mps 756 mmHg 94%
    02:00 +4°C° 0 mm 1 mps 756 mmHg 95%
    03:00 +3°C° 0 mm 1 mps 756 mmHg 95%
    04:00 +3°C° 0 mm 1 mps 757 mmHg 95%
    05:00 +3°C° 0 mm 1 mps 757 mmHg 96%
    06:00 +5°C° 0 mm 1 mps 757 mmHg 90%
    07:00 +5°C° 0 mm 2 mps 757 mmHg 84%
    08:00 +7°C° 0 mm 2 mps 758 mmHg 78%
    09:00 +9°C° 0 mm 2 mps 758 mmHg 72%
    10:00 +10°C° 0 mm 2 mps 758 mmHg 66%
    11:00 +13°C° 0 mm 2 mps 758 mmHg 60%
    12:00 +13°C° 0 mm 1 mps 758 mmHg 58%
    13:00 +14°C° 0 mm 1 mps 757 mmHg 56%
    14:00 +14°C° 0 mm 1 mps 757 mmHg 54%
    15:00 +13°C° 0 mm 0 mps 757 mmHg 54%
    16:00 +13°C° 0 mm 0 mps 757 mmHg 54%
    17:00 +13°C° 0 mm 0 mps 757 mmHg 54%
    18:00 +11°C° 0 mm 0 mps 757 mmHg 61%
    19:00 +10°C° 0 mm 0 mps 757 mmHg 68%
    20:00 +8°C° 0 mm 0 mps 758 mmHg 75%
    21:00 +8°C° 0 mm 0 mps 758 mmHg 77%
    22:00 +7°C° 0 mm 0 mps 758 mmHg 79%
    23:00 +7°C° 0 mm 0 mps 758 mmHg 81%

    22 April, Monday

    Time Temperature Precipitation Wind Pressure Humidity
    00:00 +6°C° 0 mm 0 mps 758 mmHg 82%
    01:00 +6°C° 0 mm 0 mps 758 mmHg 83%
    02:00 +6°C° 0 mm 0 mps 758 mmHg 85%
    03:00 +6°C° 0 mm 0 mps 759 mmHg 86%
    04:00 +6°C° 0 mm 1 mps 759 mmHg 87%
    05:00 +6°C° 0 mm 1 mps 759 mmHg 88%
    06:00 +8°C° 0 mm 1 mps 759 mmHg 80%
    07:00 +10°C° 0 mm 1 mps 759 mmHg 71%
    08:00 +12°C° 0 mm 1 mps 759 mmHg 63%
    09:00 +13°C° 0 mm 1 mps 759 mmHg 55%
    10:00 +15°C° 0 mm 1 mps 759 mmHg 47%
    11:00 +16°C° 0 mm 1 mps 759 mmHg 40%
    12:00 +16°C° 0 mm 1 mps 759 mmHg 38%
    13:00 +17°C° 0 mm 2 mps 758 mmHg 36%
    14:00 +17°C° 0 mm 2 mps 758 mmHg 34%
    15:00 +17°C° 0 mm 2 mps 758 mmHg 37%
    16:00 +18°C° 0 mm 1 mps 758 mmHg 39%
    17:00 +18°C° 0 mm 1 mps 757 mmHg 42%
    18:00 +15°C° 0 mm 1 mps 758 mmHg 48%
    19:00 +13°C° 0 mm 1 mps 758 mmHg 53%
    20:00 +11°C° 0 mm 1 mps 758 mmHg 59%
    21:00 +10°C° 0 mm 1 mps 758 mmHg 62%
    22:00 +10°C° 0 mm 1 mps 758 mmHg 65%
    23:00 +9°C° 0 mm 1 mps 759 mmHg 67%

    23 April, Tuesday

    Time Temperature Precipitation Wind Pressure Humidity
    00:00 +9°C° 0 mm 1 mps 759 mmHg 69%
    01:00 +8°C° 0 mm 1 mps 759 mmHg 70%
    02:00 +8°C° 0 mm 1 mps 759 mmHg 71%
    03:00 +8°C° 0 mm 1 mps 759 mmHg 72%
    04:00 +8°C° 0 mm 1 mps 759 mmHg 72%
    05:00 +6°C° 0 mm 2 mps 759 mmHg 72%
    06:00 +8°C° 0 mm 2 mps 760 mmHg 67%
    07:00 +10°C° 0 mm 2 mps 760 mmHg 62%
    08:00 +13°C° 0 mm 2 mps 760 mmHg 57%
    09:00 +15°C° 0 mm 2 mps 760 mmHg 52%
    10:00 +16°C° 0 mm 3 mps 760 mmHg 47%
    11:00 +18°C° 0 mm 3 mps 760 mmHg 41%
    12:00 +18°C° 0 mm 3 mps 759 mmHg 40%
    13:00 +19°C° 0 mm 3 mps 759 mmHg 38%
    14:00 +19°C° 0 mm 3 mps 759 mmHg 36%
    15:00 +19°C° 0 mm 3 mps 759 mmHg 39%
    16:00 +18°C° 0 mm 2 mps 759 mmHg 41%
    17:00 +18°C° 0 mm 2 mps 759 mmHg 43%
    18:00 +16°C° 0 mm 2 mps 759 mmHg 48%
    19:00 +14°C° 0 mm 2 mps 759 mmHg 53%
    20:00 +12°C° 0 mm 1 mps 759 mmHg 58%
    21:00 +12°C° 0 mm 1 mps 759 mmHg 60%
    22:00 +11°C° 0 mm 1 mps 759 mmHg 62%
    23:00 +10°C° 0 mm 1 mps 760 mmHg 63%

    24 April, Wednesday

    Time Temperature Precipitation Wind Pressure Humidity
    00:00 +10°C° 0 mm 1 mps 760 mmHg 65%
    01:00 +9°C° 0 mm 1 mps 760 mmHg 66%
    02:00 +9°C° 0 mm 1 mps 760 mmHg 67%
    03:00 +9°C° 0 mm 1 mps 760 mmHg 68%
    04:00 +9°C° 0 mm 1 mps 761 mmHg 69%
    05:00 +8°C° 0 mm 1 mps 761 mmHg 70%
    06:00 +11°C° 0 mm 1 mps 761 mmHg 64%
    07:00 +13°C° 0 mm 1 mps 761 mmHg 57%
    08:00 +15°C° 0 mm 1 mps 761 mmHg 50%
    09:00 +16°C° 0 mm 1 mps 761 mmHg 45%
    10:00 +18°C° 0 mm 2 mps 761 mmHg 40%
    11:00 +19°C° 0 mm 2 mps 761 mmHg 36%
    12:00 +19°C° 0 mm 2 mps 761 mmHg 34%
    13:00 +20°C° 0 mm 2 mps 760 mmHg 33%
    14:00 +20°C° 0 mm 2 mps 760 mmHg 32%
    15:00 +21°C° 0 mm 1 mps 760 mmHg 34%
    16:00 +21°C° 0 mm 1 mps 760 mmHg 36%
    17:00 +21°C° 0 mm 1 mps 760 mmHg 38%
    18:00 +19°C° 0 mm 1 mps 760 mmHg 43%
    19:00 +15°C° 0 mm 0 mps 760 mmHg 47%
    20:00 +12°C° 0 mm 0 mps 760 mmHg 52%
    21:00 +12°C° 0 mm 0 mps 760 mmHg 53%
    22:00 +11°C° 0 mm 0 mps 760 mmHg 55%
    23:00 +11°C° 0 mm 0 mps 760 mmHg 57%
    Show more